www.pogodaiklimat.ru

Погода и климат >> Архив погоды >> Великобритания >> Аэропорт West Freugh


ПОГОДА в Аэропорту West Freugh

  • Прогноз погоды в Аэропорту West Freugh
  • Монитор погоды в Аэропорту West Freugh

АРХИВ ПОГОДЫ в Аэропорту West Freugh

Время (UTC), дата Ветер
(напр.,м/с)
 
Видим.   Явления Облачность Т
(С)
Тd
(С)
f
(%)
Тe
(С)
Тes
(С)
Комфортность P
(гПа)
Po
(гПа)
Тmin
(С)
Tmax
(С)
R
(мм)
R24
(мм)
S
(см)
19 15.08 ЮВ 3 35 км н/о +15.8 +12.6 81 +15 +15 1011.8 1010.5
20 15.08 Ю 7 24 км н/о +15.2 +12.4 83 +13 +13 1011.7 1010.4
21 15.08 Ю 7 22 км н/о +14.9 +12.4 85 +13 +13 1011.3 1010.0
22 15.08 Ю 6 21 км н/о +15.4 +13.4 88 +14 +14 1010.8 1009.5
23 15.08 Ю 6 21 км н/о +14.9 +13.5 91 +13 +13 1010.2 1008.8
00 16.08 Ю 4 23 км н/о +15.4 +13.8 90 +14 +14 1009.4 1008.1
01 16.08 Ю 4 13 км слаб. морось с дождем н/о +15.5 +14.2 92 +15 +15 1008.6 1007.3
02 16.08 Ю 7 8000 м слаб. морось с дождем н/о +15.5 +14.8 96 +14 +14 1007.6 1006.3
03 16.08 Ю 6 11 км слаб. морось н/о +15.4 +14.6 95 +14 +14 1006.3 1005.0
04 16.08 Ю 8
{13}
7000 м дождь н/о +14.6 +13.8 95 +12 +12 1005.5 1004.2
05 16.08 Ю 9
{14}
8000 м слаб. дождь н/о +15.1 +14.5 96 +13 +13 1004.2 1002.9
06 16.08 Ю 11-16
{16}
3600 м дождь н/о +14.7 +14.3 97 +12 +12 1003.2 1001.9 +14.6 6
07 16.08 Ю 13
{17}
5000 м дождь н/о +14.3 +13.9 97 +11 +11 1002.0 1000.7
08 16.08 Ю 11
{19}
3800 м сильн. дождь н/о +14.5 +14.1 97 +12 +12 1000.7 999.4
09 16.08 Ю 13-19
{19}
5000 м дождь н/о +14.9 +14.5 97 +12 +12 999.4 998.1
10 16.08 Ю 12-18
{21}
7000 м в посл. час дождь н/о +15.5 +15.0 97 +13 +13 998.5 997.2
11 16.08 Ю 12
{19}
10 км н/о +16.5 +15.4 93 +14 +14 998.6 997.3
12 16.08 Ю 11
{16}
13 км н/о +17.5 +15.9 90 +16 +16 998.1 996.8 10
13 16.08 Ю 9
{14}
12 км н/о +17.3 +15.7 90 +16 +16 997.4 996.1
14 16.08 Ю 9
{13}
17 км н/о +19.1 +16.8 87 +20 +20 996.9 995.6
15 16.08 Ю 8 21 км н/о +19.5 +17.1 86 +21 +21 комфорт 996.0 994.7
16 16.08 ЮВ 7 20 км н/о +17.7 +15.9 89 +17 +17 995.4 994.1
17 16.08 Ю 8 35 км н/о +18.9 +16.6 87 +19 +19 994.4 993.2
18 16.08 Ю 9 12 км н/о +16.3 +15.6 96 +14 +14 994.2 992.9 +20.1 10
19 16.08 Ю 6 11 км н/о +15.9 +15.3 96 +14 +14 993.5 992.3
20 16.08 Ю 4 12 км н/о +15.0 +14.1 94 +14 +14 993.7 992.4
21 16.08 ЮЗ 5 30 км н/о +15.1 +12.5 84 +14 +14 994.0 992.7
22 16.08 ЮЗ 4 29 км н/о +14.9 +12.0 83 +14 +14 994.3 993.0
23 16.08 ЮЗ 4 22 км н/о +14.0 +11.8 87 +13 +13 994.3 993.0
00 17.08 ЮЗ 4 20 км н/о +14.2 +12.5 90 +13 +13 994.3 993.0
01 17.08 ЮЗ 3 23 км н/о +13.6 +12.2 91 +13 +13 994.5 993.2
02 17.08 ЮЗ 7 21 км н/о +14.7 +12.7 88 +13 +13 994.3 993.0
03 17.08 ЮЗ 5 17 км в посл. час дождь н/о +13.6 +12.8 95 +12 +12 994.5 993.2
04 17.08 З 5 21 км н/о +13.4 +11.9 91 +11 +11 994.9 993.6
05 17.08 ЮЗ 4 20 км н/о +12.5 +11.4 93 +11 +11 995.5 994.2
06 17.08 ЮЗ 6 16 км н/о +12.5 +11.1 91 +10 +10 995.8 994.5 +11.9 1
07 17.08 ЮЗ 8 16 км н/о +13.5 +11.1 85 +11 +11 996.2 994.9
08 17.08 ЮЗ 8
{13}
18 км н/о +14.5 +11.3 81 +12 +12 996.6 995.3
09 17.08 ЮЗ 9
{13}
22 км н/о +15.4 +11.5 78 +13 +13 996.9 995.6
10 17.08 ЮЗ 8
{13}
27 км н/о +16.0 +10.7 71 +14 +14 997.2 995.9
11 17.08 ЮЗ 7
{13}
30 км н/о +17.3 +11.9 71 +16 +16 997.5 996.2
12 17.08 Ю 10
{13}
19 км н/о +16.9 +12.5 75 +15 +15 997.2 995.9
13 17.08 ЮЗ 11
{15}
26 км н/о +17.3 +11.6 69 +16 +16 997.1 995.8
14 17.08 Ю 10
{15}
7000 м слаб. ливневой дождь н/о +14.8 +11.1 78 +12 +12 997.4 996.1
15 17.08 Ю 9
{16}
18 км в посл. час дождь н/о +15.7 +12.4 81 +14 +14 996.7 995.5
16 17.08 Ю 10
{15}
20 км н/о +16.6 +13.0 79 +15 +15 996.5 995.2
17 17.08 Ю 10-15
{15}
26 км н/о +16.2 +12.1 77 +14 +14 996.3 995.0
18 17.08 Ю 9
{15}
25 км н/о +15.0 +11.6 80 +13 +13 996.3 995.0 +18.1 4
19 17.08 Ю 6 18 км н/о +14.8 +11.5 81 +13 +13 996.3 995.0
20 17.08 Ю 5 22 км н/о +13.6 +10.7 83 +12 +12 996.3 995.0
21 17.08 ЮЗ 7 35 км н/о +13.6 +9.5 76 +11 +11 996.5 995.2
22 17.08 ЮЗ 8 28 км н/о +13.5 +9.3 76 +11 +11 996.4 995.1
23 17.08 ЮЗ 8 23 км н/о +13.5 +9.6 77 +11 +11 996.2 994.9
00 18.08 ЮЗ 8 28 км н/о +13.4 +10.4 82 +11 +11 995.9 994.6 0.6
01 18.08 Ю 6 21 км н/о +12.8 +10.4 85 +10 +10 995.8 994.5
02 18.08 ЮЗ 8 17 км н/о +13.1 +10.7 85 +10 +10 995.1 993.8
03 18.08 ЮЗ 9 21 км н/о +12.8 +10.2 84 +10 +10 994.7 993.4
04 18.08 ЮЗ 9
{13}
21 км н/о +13.0 +10.3 84 +10 +10 994.4 993.1
05 18.08 ЮЗ 9
{13}
6000 м ливневой дождь н/о +12.4 +11.2 92 +9 +9 994.2 992.8
06 18.08 ЮЗ 9
{13}
20 км слаб. дождь н/о +12.6 +11.1 91 +9 +9 993.9 992.6 +12.4 2
07 18.08 ЮЗ 8 18 км слаб. дождь н/о +12.9 +11.4 91 +10 +10 994.1 992.8
08 18.08 ЮЗ 8 16 км в посл. час дождь н/о +13.5 +11.6 88 +11 +11 994.4 993.1
09 18.08 ЮЗ 6 17 км н/о +14.2 +11.9 86 +12 +12 995.0 993.7
10 18.08 ЮЗ 8 20 км н/о +16.4 +12.9 80 +15 +15 995.3 994.0
11 18.08 ЮЗ 8 23 км н/о +17.0 +12.3 74 +16 +16 995.7 994.4
12 18.08 ЮЗ 8 27 км н/о +16.6 +12.2 75 +15 +15 996.0 994.7 0.4
13 18.08 ЮЗ 7 28 км в посл. час дождь н/о +15.0 +11.0 77 +13 +13 996.6 995.3
14 18.08 ЮЗ 6
{13}
22 км н/о +16.7 +12.7 77 +16 +16 997.2 995.9
15 18.08 ЮЗ 7 35 км н/о +17.3 +11.2 67 +16 +16 997.6 996.3
16 18.08 ЮЗ 6 25 км н/о +18.3 +12.3 68 +18 +18 997.9 996.6
17 18.08 З 4 25 км н/о +17.5 +10.7 64 +17 +17 998.4 997.1
18 18.08 З 4 20 км н/о +16.1 +11.9 76 +15 +15 998.9 997.7 +18.5 0.4
19 18.08 З 4 20 км слаб. ливневой дождь н/о +14.9 +12.1 83 +14 +14 999.5 998.2
20 18.08 З 3 15 км слаб. дождь н/о +14.1 +12.7 91 +13 +13 1000.1 998.8
21 18.08 З 4 12 км в посл. час дождь н/о +13.7 +12.2 91 +12 +12 1001.0 999.7
22 18.08 З 3 30 км н/о +12.9 +11.4 91 +11 +11 1001.7 1000.4
23 18.08 З 5 28 км н/о +13.4 +11.8 90 +11 +11 1002.3 1001.0
00 19.08 З 6 28 км н/о +13.3 +11.5 89 +11 +11 1002.9 1001.6 0.6
01 19.08 З 5 18 км н/о +13.3 +11.3 88 +11 +11 1003.5 1002.2
02 19.08 З 5 15 км в посл. час дождь н/о +12.8 +10.5 86 +11 +11 1003.9 1002.6
03 19.08 З 4 15 км н/о +12.7 +10.8 88 +11 +11 1004.4 1003.1
04 19.08 З 6 15 км слаб. ливневой дождь н/о +12.7 +10.7 88 +10 +10 1004.8 1003.5
05 19.08 З 5 21 км слаб. морось с дождем н/о +12.5 +10.9 90 +10 +10 1005.3 1004.0
06 19.08 З 5 23 км в посл. час дождь н/о +12.6 +11.0 90 +10 +10 1005.8 1004.4 +12.5 0.6
07 19.08 З 6 21 км н/о +13.7 +11.2 85 +12 +12 1006.3 1005.0
08 19.08 З 6 22 км н/о +13.8 +11.6 87 +12 +12 1006.8 1005.5
09 19.08 З 8 35 км н/о +14.0 +11.1 83 +12 +12 1007.3 1006.0
10 19.08 ЮЗ 8 30 км н/о +15.2 +11.2 77 +13 +13 1007.8 1006.4
11 19.08 ЮЗ 8 40 км н/о +14.5 +10.7 78 +12 +12 1008.3 1007.0
12 19.08 ЮЗ 8 35 км н/о +16.3 +10.8 70 +15 +15 1008.7 1007.4
13 19.08 З 8 40 км н/о +16.5 +9.9 65 +15 +15 1009.3 1008.0
14 19.08 ЮЗ 7 27 км слаб. морось с дождем н/о +15.4 +10.7 74 +14 +14 1009.8 1008.5
15 19.08 З 7 35 км в посл. час дождь н/о +16.4 +10.0 66 +15 +15 1010.1 1008.7
16 19.08 З 5 35 км слаб. морось с дождем н/о +14.8 +10.3 74 +13 +13 1010.4 1009.1
17 19.08 З 4 50 км в посл. час дождь н/о +15.4 +11.2 76 +14 +14 1010.6 1009.3
18 19.08 З 3 50 км в посл. час дождь н/о +14.7 +11.2 80 +14 +14 1011.1 1009.8 +17.1 0.0
19 19.08 ЮЗ 3 27 км в посл. час дождь н/о +13.1 +11.8 92 +12 +12 1011.5 1010.2
20 19.08 З 2 30 км слаб. ливневой дождь н/о +12.7 +11.6 93 +12 +12 1012.0 1010.7
21 19.08 З 5 13 км ливневой дождь н/о +12.5 +11.4 93 +10 +10 1012.9 1011.6
22 19.08 З 5 30 км в посл. час дождь н/о +12.6 +11.1 91 +10 +10 1013.5 1012.1
23 19.08 З 5 17 км в посл. час дождь н/о +12.8 +11.4 91 +11 +11 1014.0 1012.7
00 20.08 З 5 29 км н/о +12.7 +10.7 88 +10 +10 1014.3 1013.0 2
01 20.08 З 5 28 км в посл. час дождь н/о +12.3 +10.1 86 +10 +10 1014.7 1013.3
02 20.08 З 5 29 км н/о +12.3 +10.2 87 +10 +10 1015.1 1013.7
03 20.08 З 5 19 км н/о +12.0 +10.0 88 +9 +9 1015.5 1014.2
04 20.08 З 4 15 км в посл. час дождь н/о +11.9 +10.2 89 +10 +10 1015.8 1014.5
05 20.08 З 5 11 км в посл. час дождь н/о +11.8 +10.0 89 +9 +9 1016.4 1015.1
06 20.08 З 4 16 км слаб. морось с дождем н/о +11.6 +10.2 91 +9 +9 1017.1 1015.7 +11.4 2
07 20.08 З 5 27 км в посл. час дождь н/о +12.3 +10.4 88 +10 +10 1017.5 1016.2
08 20.08 З 6 26 км н/о +13.2 +10.1 81 +11 +11 1018.1 1016.8
09 20.08 З 6 30 км н/о +14.2 +10.4 78 +12 +12 1018.8 1017.5
10 20.08 З 5 22 км н/о +15.2 +11.2 77 +14 +14 1019.3 1017.9
11 20.08 З 5 29 км н/о +15.5 +8.7 64 +14 +14 1019.7 1018.4
12 20.08 З 5 21 км н/о +17.0 +11.3 69 +16 +16 1019.9 1018.6 0.0
13 20.08 ЮЗ 5 30 км н/о +17.2 +10.5 65 +17 +17 1020.2 1018.9
14 20.08 Ю 6 17 км н/о +17.3 +11.5 69 +17 +17 1020.5 1019.2
15 20.08 Ю 7 19 км н/о +15.0 +11.2 78 +13 +13 1020.6 1019.3
16 20.08 Ю 8 19 км н/о +15.3 +11.4 78 +13 +13 1020.5 1019.1
17 20.08 Ю 6 21 км н/о +15.9 +11.5 75 +15 +15 1020.6 1019.2
18 20.08 Ю 6 22 км н/о +15.1 +11.8 81 +13 +13 1020.7 1019.4 +17.6 0.0
19 20.08 Ю 5 16 км н/о +14.3 +12.4 88 +13 +13 1020.7 1019.4
20 20.08 Ю 3 10 км дымка н/о +13.2 +12.4 95 +12 +12 1020.9 1019.6
21 20.08 В 2 19 км н/о +12.3 +11.6 95 +12 +12 1021.0 1019.6
22 20.08 Ю 2 17 км н/о +13.6 +13.1 97 +13 +13 1021.2 1019.8
23 20.08 Ю 2 21 км н/о +14.2 +13.5 96 +14 +14 1021.2 1019.9
00 21.08 Ю 2 13 км н/о +13.5 +12.8 96 +13 +13 1021.2 1019.9
01 21.08 ЮЗ 2 15 км н/о +12.4 +11.8 96 +11 +11 1021.4 1020.1
02 21.08 Ю 1 16 км н/о +13.1 +12.6 97 +14 +14 1021.4 1020.1
03 21.08 ЮЗ 4 27 км н/о +13.4 +12.8 96 +12 +12 1021.4 1020.0
04 21.08 ЮЗ 5 25 км н/о +13.0 +12.2 95 +11 +11 1021.1 1019.8
05 21.08 ЮЗ 4 22 км н/о +12.8 +12.1 96 +11 +11 1021.1 1019.8
06 21.08 Ю 3 20 км н/о +12.9 +12.3 96 +11 +11 1021.3 1020.0 +12.0
07 21.08 Ю 4 23 км н/о +14.2 +13.2 94 +13 +13 1021.2 1019.9
08 21.08 Ю 6 22 км н/о +14.8 +13.2 90 +13 +13 1021.0 1019.7
09 21.08 Ю 8 26 км н/о +15.6 +13.1 85 +14 +14 1020.9 1019.6
10 21.08 Ю 8 29 км н/о +16.2 +13.1 82 +15 +15 1020.5 1019.2
11 21.08 Ю 11
{14}
40 км н/о +16.4 +12.2 76 +14 +14 1019.8 1018.5
12 21.08 Ю 10
{13}
21 км н/о +15.9 +13.2 84 +14 +14 1019.5 1018.2
13 21.08 Ю 10
{14}
15 км слаб. морось с дождем н/о +15.3 +13.4 88 +13 +13 1019.1 1017.7
14 21.08 Ю 9
{13}
11 км слаб. дождь н/о +15.3 +13.6 90 +13 +13 1018.6 1017.3
15 21.08 Ю 10
{14}
5000 м дождь н/о +14.6 +13.8 95 +12 +12 1018.0 1016.7
16 21.08 Ю 12
{15}
7000 м дождь н/о +14.6 +13.7 94 +12 +12 1017.0 1015.7
17 21.08 Ю 12-18
{18}
8000 м слаб. дождь н/о +14.6 +13.8 95 +12 +12 1016.3 1015.0
18 21.08 Ю 12
{17}
5000 м ливневой дождь н/о +14.3 +13.4 94 +11 +11 1015.8 1014.5 +17.1 4
19 21.08 Ю 10
{17}
12 км в посл. час дождь н/о +14.5 +13.7 95 +12 +12 1015.8 1014.4
20 21.08 ЮЗ 9
{14}
16 км н/о +14.8 +13.5 92 +12 +12 1016.0 1014.7
21 21.08 ЮЗ 6 16 км н/о +14.3 +13.3 94 +12 +12 1016.2 1014.8
22 21.08 ЮЗ 4 13 км н/о +14.1 +13.4 96 +13 +13 1016.2 1014.9
23 21.08 ЮЗ 3 17 км н/о +14.0 +13.4 96 +13 +13 1016.3 1015.0
00 22.08 ЮЗ 3 30 км н/о +13.5 +12.7 95 +12 +12 1016.4 1015.0 0.2
01 22.08 Ю 3 28 км н/о +13.4 +12.5 94 +12 +12 1016.2 1014.9
02 22.08 ЮЗ 4 20 км н/о +13.5 +12.7 95 +12 +12 1016.3 1014.9
03 22.08 ЮЗ 5 19 км н/о +13.6 +12.4 92 +12 +12 1016.1 1014.8
04 22.08 ЮЗ 4 20 км н/о +13.4 +12.6 95 +12 +12 1015.8 1014.5
05 22.08 ЮЗ 6 18 км н/о +13.8 +13.0 95 +12 +12 1015.6 1014.3
06 22.08 ЮЗ 6 35 км н/о +13.0 +11.1 88 +11 +11 1015.7 1014.4 +12.9 0.2
07 22.08 ЮЗ 5 40 км н/о +14.0 +11.6 85 +12 +12 1016.0 1014.7
08 22.08 Ю 6 35 км н/о +14.5 +11.9 84 +13 +13 1016.1 1014.8
09 22.08 ЮЗ 7 29 км н/о +14.5 +11.8 84 +12 +12 1016.2 1014.8
10 22.08 Ю 6 13 км слаб. морось с дождем н/о +14.3 +13.1 92 +12 +12 1016.3 1014.9
11 22.08 Ю 7 12 км слаб. ливневой дождь н/о +15.6 +14.8 95 +14 +14 1015.7 1014.4
12 22.08 ЮЗ 7 15 км в посл. час дождь н/о +15.9 +14.6 92 +14 +14 1015.8 1014.5 0.2
13 22.08 Ю 8 15 км в посл. час дождь н/о +16.5 +14.7 89 +15 +15 1015.7 1014.4
14 22.08 Ю 8 18 км в посл. час дождь н/о +16.9 +15.0 89 +16 +16 1015.6 1014.3
15 22.08 Ю 8 23 км н/о +16.9 +14.9 88 +16 +16 1015.5 1014.2
17 22.08 ЮЗ 8
{13}
24 км н/о +17.2 +15.8 91 +16 +16 1015.3 1014.0
18 22.08 ЮЗ 6 35 км н/о +18.0 +16.0 88 +17 +17 1015.8 1014.5 +18.0 0.2
19 22.08 З 7 30 км н/о +18.1 +15.0 82 +18 +18 1016.7 1015.4

 

Местоположение метеостанции Аэропорт West Freugh (Великобритания): широта 54.85 долгота -4.95 высота над уровнем моря 10 м.

В архиве по умолчанию представлена погода в Аэропорту West Freugh за последнюю неделю. Архивные данные за месяц целиком и за предыдущие месяцы, начиная с января 2011 года, Вы можете получить, выбрав интересующий диапазон дат из раскрывающегося списка и нажав кнопку "Ввод!".


*Определитесь, кто Вы:
робот инопланетянин человек

Внимание! Время в таблицах - всемирное. Для получения местного времени необходимо прибавить поправку, которая равна 0 ч.

Смотрите также архив погоды в соседних городах и на ближайших метеорологических станциях:

Погода в Дандреннане (Великобритания) (61 км)
Погода в Прествике (Великобритания) (78 км)
Погода в Макрайханише (Великобритания) (80 км)
Погода в Белфасте (Великобритания) (85 км)
Погода в Баллипатрик Форест (Великобритания) (86 км)
Погода на Острове Мэн (Великобритания) (88 км)
Погода на Мысе Сент-Бис (Великобритания) (94 км)
Погода в Портгленоне (Великобритания) (96 км)
Погода в Друмалбине (Великобритания) (115 км)
Погода в Кесвике (Великобритания) (117 км)

Пояснения к столбцам:

Ветер - указаны скорость ветра в м/с - средняя за 10 мин, порывы в срок и между сроками (в фигурных скобках) и направление, откуда дует ветер: С - северный, СВ - северо-восточный, В - восточный, ЮВ - юго-восточный, Ю - южный, ЮЗ - юго-западный, З - западный, СЗ - северо-западный.
Видимость - горизонтальная дальность видимости в метрах или километрах. При видимости от 1 до 10 км при отсутствии осадков обычно наблюдается дымка, при ухудшении видимости до 1 км и менее - туман. В сухую погоду видимость может ухудшаться дымом, пылью или мглою.
Явления - указаны атмосферные явления, наблюдавшиеся в срок или в последний час перед сроком; фигурными скобками обозначены явления, наблюдавшиеся между сроками (за 1-3 часа до срока); квадратными скобками обозначены град или гололедные отложения с указанием их диаметра в мм.
Облачность - указаны через наклонную черту общая и нижняя облачность в баллах и высота нижней границы облаков в метрах; квадратными скобками обозначены формы облаков: Ci - перистые, Cs - перисто-слоистые, Cc - перисто-кучевые, Ac - высококучевые, As - высокослоистые, Sc - слоисто-кучевые, Ns - слоисто-дождевые, Cu - кучевые, Cb - кучево-дождевые. Подробнее классификацию облаков см. в Атласе облаков (PDF).
T - Температура воздуха - температура, измеренная на высоте 2 м над землей.
Td - Температура точки росы - температура, при понижении до которой содержащийся в воздухе водяной пар достигнет насыщения.
f - Относительная влажность воздуха - влажноcть воздуха, измеренная на высоте 2 м над землей.
Te - Эффективная температура - температура, которую ощущает одетый по сезону человек в тени. Характеристика душности погоды. При расчете учитывается влияние влажности воздуха и скорости ветра на теплоощущения человека.
Tes - Эффективная температура на солнце - температура, которую ощущает человек, с поправкой на солнечный нагрев. Характеристика знойности погоды. Зависит от высоты солнца над горизонтом, облачности и скорости ветра. Ночью, в пасмурную погоду, а также при ветре 12 м/с и более поправка равна нулю.
P - Атмосферное давление - приведенное к уровню моря атмосферное давление.
Po - Атмосферное давление - измеренное на уровне метеостанции атмосферное давление.
Tmin - Минимальная температура - минимум температуры воздуха на высоте 2 м над землей.
Tmax - Максимальная температура - максимум температуры воздуха на высоте 2 м над землей.
R - Количество осадков - Количество выпавших осадков за период времени, мм. При наведении курсора мыши на число - период времени, за который выпало указанное количество осадков.
R24 - Количество осадков - Количество выпавших осадков за 24 часа, мм.
S - Снежный покров - Высота снежного покрова, см. При наведении курсора мыши на число - состояние снежного покрова и степень покрытия местности в баллах.